VU3ZAG-13 Weather Reports


time (UTC)temp
F
wind
direction
speed
knots
gust
knots
rain 1hr
in
rain 24hr
in
rain mn
in
humidity
%
barometer
mb
20260508193150 91 24 0.0 0.0 0.00 0.00 0.00 48
20260508192641 92 131 0.0 0.0 0.00 0.00 0.00 44
20260508192133 92 131 0.0 0.0 0.00 0.00 0.00 42
20260508191624 92 108 0.0 0.0 0.00 0.00 0.00 41
20260508191115 92 130 0.0 0.0 0.00 0.00 0.00 41
20260508190607 92 146 0.9 0.0 0.00 0.00 0.00 41
20260508190058 92 170 0.0 0.0 0.00 0.00 0.00 41
20260508185550 92 272 0.9 0.0 0.00 0.00 0.00 41
20260508184022 92 254 0.9 0.0 0.00 0.00 0.00 41
20260508183514 92 248 0.9 0.0 0.00 0.00 0.00 41
20260508183006 92 242 0.9 0.0 0.00 0.00 0.00 43
20260508182457 92 260 0.9 0.0 0.00 0.00 0.00 42
20260508181948 92 275 0.9 0.0 0.00 0.00 0.00 42
20260508181440 92 268 0.9 0.0 0.00 0.00 0.00 41
20260508180931 92 249 0.9 0.0 0.00 0.00 0.00 41
20260508180422 92 239 1.7 0.0 0.00 0.00 0.00 41
20260508175913 92 257 0.9 0.0 0.00 0.00 0.00 42
20260508175404 92 263 0.9 0.0 0.00 0.00 0.00 42
20260508174855 92 250 0.9 0.0 0.00 0.00 0.00 43
20260508174347 92 246 0.9 0.0 0.00 0.00 0.00 37
20260508173329 92 233 1.7 0.0 0.00 0.00 0.00 36
20260508172820 92 277 1.7 0.0 0.00 0.00 0.00 37
20260508172311 92 291 2.6 0.0 0.00 0.00 0.00 36
20260508171802 92 297 1.7 0.0 0.00 0.00 0.00 36
20260508171254 92 278 1.7 0.0 0.00 0.00 0.00 36
20260508170745 92 278 3.5 0.0 0.00 0.00 0.00 36
20260508170236 92 285 2.6 0.0 0.00 0.00 0.00 36
20260508165727 92 300 3.5 0.0 0.00 0.00 0.00 36
20260508165218 92 266 1.7 0.0 0.00 0.00 0.00 36
20260508164709 92 268 2.6 0.0 0.00 0.00 0.00 37
20260508164201 92 260 3.5 0.0 0.00 0.00 0.00 37
20260508163652 92 276 2.6 0.0 0.00 0.00 0.00 37
20260508163144 92 283 3.5 0.0 0.00 0.00 0.00 37
20260508162635 92 266 2.6 0.0 0.00 0.00 0.00 37
20260508162126 92 342 2.6 0.0 0.00 0.00 0.00 37
20260508161617 92 305 3.5 0.0 0.00 0.00 0.00 37
20260508161108 92 302 4.3 0.0 0.00 0.00 0.00 37
20260508160559 92 324 3.5 0.0 0.00 0.00 0.00 37
20260508160051 92 297 3.5 0.0 0.00 0.00 0.00 37
20260508155542 92 321 1.7 0.0 0.00 0.00 0.00 37
20260508155033 92 306 2.6 0.0 0.00 0.00 0.00 37
20260508154525 92 332 3.5 0.0 0.00 0.00 0.00 37
20260508154017 92 332 1.7 0.0 0.00 0.00 0.00 37
20260508153508 92 278 3.5 0.0 0.00 0.00 0.00 37
20260508152959 91 328 2.6 0.0 0.00 0.00 0.00 37
20260508152451 91 332 3.5 0.0 0.00 0.00 0.00 38
20260508151942 91 320 2.6 0.0 0.00 0.00 0.00 38
20260508151434 91 294 3.5 0.0 0.00 0.00 0.00 39
20260508125532 92 242 0.9 0.0 0.00 0.00 0.00 26
20260508125024 92 56 0.9 0.0 0.00 0.00 0.00 26
20260508124516 92 238 0.9 0.0 0.00 0.00 0.00 26
20260508124007 92 174 0.0 0.0 0.00 0.00 0.00 26
20260508123458 92 257 0.9 0.0 0.00 0.00 0.00 27
20260508122950 92 148 0.0 0.0 0.00 0.00 0.00 26
20260508121422 92 239 0.9 0.0 0.00 0.00 0.00 26
20260508120403 92 198 0.9 0.0 0.00 0.00 0.00 27
20260508115855 92 221 0.9 0.0 0.00 0.00 0.00 27
20260508115346 92 207 0.0 0.0 0.00 0.00 0.00 27
20260508114837 92 237 0.9 0.0 0.00 0.00 0.00 28
20260508114328 92 195 1.7 0.0 0.00 0.00 0.00 28
20260508113820 92 185 0.9 0.0 0.00 0.00 0.00 27
20260508113311 92 178 0.9 0.0 0.00 0.00 0.00 27
20260508112802 92 216 0.9 0.0 0.00 0.00 0.00 28
20260508111744 92 260 0.9 0.0 0.00 0.00 0.00 31
20260508111236 92 104 0.9 0.0 0.00 0.00 0.00 30
20260508110727 92 222 0.9 0.0 0.00 0.00 0.00 31
20260508110219 92 317 0.9 0.0 0.00 0.00 0.00 31
20260508105710 92 264 0.0 0.0 0.00 0.00 0.00 31
20260508105201 92 231 0.0 0.0 0.00 0.00 0.00 30
20260508104653 92 88 0.0 0.0 0.00 0.00 0.00 30
20260508104144 92 52 0.0 0.0 0.00 0.00 0.00 30
20260508103636 92 126 0.9 0.0 0.00 0.00 0.00 30
20260508102617 92 35 1.7 0.0 0.00 0.00 0.00 30
20260508102108 92 62 1.7 0.0 0.00 0.00 0.00 30
20260508101559 92 66 0.0 0.0 0.00 0.00 0.00 30
20260508101051 91 118 0.0 0.0 0.00 0.00 0.00 30
20260508100542 91 34 1.7 0.0 0.00 0.00 0.00 32
20260508100033 92 256 0.0 0.0 0.00 0.00 0.00 33
20260508095524 92 192 0.0 0.0 0.00 0.00 0.00 33
20260508095016 92 277 1.7 0.0 0.00 0.00 0.00 33
20260508094507 92 24 0.9 0.0 0.00 0.00 0.00 33
20260508093959 92 242 1.7 0.0 0.00 0.00 0.00 31
20260508093448 92 189 1.7 0.0 0.00 0.00 0.00 33
20260508092940 92 113 0.9 0.0 0.00 0.00 0.00 33
20260508092431 92 190 0.9 0.0 0.00 0.00 0.00 33
20260508091923 92 9 0.9 0.0 0.00 0.00 0.00 32
20260508091414 92 359 0.9 0.0 0.00 0.00 0.00 33
20260508090905 92 160 1.7 0.0 0.00 0.00 0.00 33
20260508085847 91 121 0.9 0.0 0.00 0.00 0.00 35
20260508085338 92 79 0.9 0.0 0.00 0.00 0.00 34
20260508084829 92 44 0.9 0.0 0.00 0.00 0.00 34
20260508084321 92 358 1.7 0.0 0.00 0.00 0.00 33
20260508083812 92 193 0.0 0.0 0.00 0.00 0.00 36
20260508083304 91 192 0.0 0.0 0.00 0.00 0.00 30
20260508082755 92 41 1.7 0.0 0.00 0.00 0.00 30
20260508082247 92 30 0.9 0.0 0.00 0.00 0.00 31
20260508081738 92 198 0.9 0.0 0.00 0.00 0.00 30
20260508081229 92 63 0.9 0.0 0.00 0.00 0.00 32
20260508080720 91 181 1.7 0.0 0.00 0.00 0.00 31
20260508080211 91 17 0.0 0.0 0.00 0.00 0.00 31
20260508075703 91 167 0.0 0.0 0.00 0.00 0.00 31
20260508074618 91 36 0.9 0.0 0.00 0.00 0.00 33
20260508074110 91 157 0.9 0.0 0.00 0.00 0.00 34
20260508073601 91 221 0.9 0.0 0.00 0.00 0.00 33
20260508073052 91 207 0.9 0.0 0.00 0.00 0.00 33
20260508072543 91 113 0.0 0.0 0.00 0.00 0.00 33
20260508072034 91 173 2.6 0.0 0.00 0.00 0.00 32
20260508071525 91 330 0.0 0.0 0.00 0.00 0.00 32
20260508070507 91 51 0.9 0.0 0.00 0.00 0.00 30
20260508065958 91 76 0.9 0.0 0.00 0.00 0.00 30
20260508065450 91 31 1.7 0.0 0.00 0.00 0.00 30
20260508064941 91 21 0.9 0.0 0.00 0.00 0.00 30
20260508064433 91 33 1.7 0.0 0.00 0.00 0.00 33
20260508063924 90 78 1.7 0.0 0.00 0.00 0.00 33
20260508063412 90 346 0.0 0.0 0.00 0.00 0.00 32
20260508062904 90 292 0.9 0.0 0.00 0.00 0.00 33
20260508062355 90 199 0.0 0.0 0.00 0.00 0.00 31
20260508061846 90 340 1.7 0.0 0.00 0.00 0.00 32
20260508060252 90 65 0.9 0.0 0.00 0.00 0.00 34
20260508055743 90 97 1.7 0.0 0.00 0.00 0.00 35
20260508055235 90 52 0.9 0.0 0.00 0.00 0.00 36
20260508054726 90 184 1.7 0.0 0.00 0.00 0.00 35
20260508054217 90 53 1.7 0.0 0.00 0.00 0.00 34
20260508053708 90 29 1.7 0.0 0.00 0.00 0.00 34
20260508053159 90 267 0.9 0.0 0.00 0.00 0.00 36
20260508051739 90 71 1.7 0.0 0.00 0.00 0.00 38
20260508051230 90 80 0.9 0.0 0.00 0.00 0.00 38
20260508050212 90 244 0.0 0.0 0.00 0.00 0.00 39
20260508045704 90 188 0.9 0.0 0.00 0.00 0.00 37
20260508045155 90 217 0.9 0.0 0.00 0.00 0.00 37
20260508044646 89 80 0.9 0.0 0.00 0.00 0.00 38
20260508044137 89 54 1.7 0.0 0.00 0.00 0.00 37
20260508043629 89 195 0.0 0.0 0.00 0.00 0.00 37
20260508043120 89 4 1.7 0.0 0.00 0.00 0.00 39
20260508042611 89 55 1.7 0.0 0.00 0.00 0.00 42
20260508042103 90 50 2.6 0.0 0.00 0.00 0.00 43
20260508041554 90 36 0.9 0.0 0.00 0.00 0.00 43
20260508041046 90 230 0.9 0.0 0.00 0.00 0.00 43
20260508040537 90 4 0.9 0.0 0.00 0.00 0.00 44
20260508040028 90 74 0.9 0.0 0.00 0.00 0.00 44
20260508035519 90 16 1.7 0.0 0.00 0.00 0.00 43
20260508035010 89 262 0.9 0.0 0.00 0.00 0.00 41
20260508034501 89 314 1.7 0.0 0.00 0.00 0.00 39
20260508033952 89 347 0.9 0.0 0.00 0.00 0.00 39
20260508033444 89 257 0.9 0.0 0.00 0.00 0.00 40
20260508032935 89 298 0.9 0.0 0.00 0.00 0.00 45
20260508032427 89 306 0.9 0.0 0.00 0.00 0.00 45
20260508031918 88 321 0.9 0.0 0.00 0.00 0.00 46
20260508031409 89 330 1.7 0.0 0.00 0.00 0.00 49
20260508030901 89 322 1.7 0.0 0.00 0.00 0.00 48
20260508030352 89 295 1.7 0.0 0.00 0.00 0.00 48
20260508025844 89 315 1.7 0.0 0.00 0.00 0.00 48
20260508025335 89 308 0.9 0.0 0.00 0.00 0.00 47
20260508024826 89 264 2.6 0.0 0.00 0.00 0.00 47
20260508024317 89 259 1.7 0.0 0.00 0.00 0.00 48
20260508023809 89 289 1.7 0.0 0.00 0.00 0.00 48
20260508023300 89 275 2.6 0.0 0.00 0.00 0.00 48
20260508022751 89 306 0.9 0.0 0.00 0.00 0.00 48
20260508022242 89 343 2.6 0.0 0.00 0.00 0.00 49
20260508021733 89 327 3.5 0.0 0.00 0.00 0.00 49
20260508021224 89 333 2.6 0.0 0.00 0.00 0.00 50
20260508020715 89 285 0.9 0.0 0.00 0.00 0.00 49
20260508020206 89 314 2.6 0.0 0.00 0.00 0.00 49
20260508015658 89 314 1.7 0.0 0.00 0.00 0.00 47
20260508015149 89 323 3.5 0.0 0.00 0.00 0.00 45
20260508014641 89 339 3.5 0.0 0.00 0.00 0.00 45
20260508014132 89 307 2.6 0.0 0.00 0.00 0.00 46